Voltar ao catálogo

FENGYUN 1C DEB

AtivoSSO
NORAD 30746·DEBRIS·🇨🇳 China

Lançado May 10, 1999 de Taiyuan Satellite Launch Center

Loading…

Próximas Passagens (próximas 24 horas)

TLE

AtualizadoSource: Space-Track

Época: Sep 14, 2026, 08:52 UTC

1 30746U 99025ATG 26257.36995521  .00000698  00000-0  29698-3 0  9997
2 30746  99.0584  93.1287 0044793 241.6764 240.8569 14.28061089 13797

Acompanhe FENGYUN 1C DEB em tempo real com AllMySat

Download on the App Store